[[{"header":{"parameterUnit":"m.s-1","parameterCategory":1,"la1":30.2991,"la2":30.254,"lo1":-89.0895,"lo2":-89.0444,"dy":0.0017,"dx":0.0017,"nx":28,"ny":28,"refTime":"2024-06-18T09:00:00:Z","depth":0,"parameterNumber":2,"parameterNumberName":"U-component_of_WINDS"},"data":[0,0,0,0,0,0,0,0,0,0,0,0,0,0,0,0,0,0,0,0,0,0,0,0,0,0,0,0,0,0,0,0,0,0,0,0,0,0,0,0,0,0,0,0,0,0,0,0,0,0,0,0,0,0,0,0,0,0,-10.769,-10.769,0,-10.7695,-10.7695,-10.7695,-10.7522,-10.7518,-10.7513,-10.7509,-10.7511,-10.7515,-10.7519,0,0,0,0,0,0,0,0,0,0,0,0,0,-10.7528,-10.7532,-10.769,-10.769,-10.769,-10.7695,-10.7695,-10.7695,-10.7523,-10.7518,-10.7512,-10.7507,-10.7509,-10.7514,-10.752,0,0,0,0,0,0,0,0,0,0,0,0,0,-10.7572,-10.7533,-10.769,-10.7605,-10.7597,-10.7695,-10.7695,-10.7695,-10.7524,-10.7517,-10.751,-10.7504,-10.7508,-10.7514,-10.752,-10.7699,0,0,-10.754,-10.7543,0,0,0,0,0,0,0,0,-10.757,-10.7578,-10.7617,-10.7611,-10.7603,-10.7601,-10.7639,-10.7697,-10.7526,-10.7552,-10.7509,-10.7501,-10.7546,-10.7549,-10.7565,-10.7699,-10.7699,-10.7541,-10.7545,-10.7548,-10.7549,0,0,0,0,0,0,0,-10.7567,-10.7577,-10.7692,-10.7618,-10.7609,-10.7566,-10.7564,-10.7649,-10.7588,-10.7549,-10.7537,-10.754,-10.7541,-10.7559,-10.7564,-10.7699,-10.7541,-10.7546,-10.755,-10.7553,-10.7979,-10.7986,0,0,0,0,0,0,-10.7576,-10.7576,-10.7692,-10.7692,-10.7569,-10.7574,-10.7573,-10.7609,-10.7586,-10.7576,-10.7546,-10.7532,-10.7552,-10.7556,-10.7563,-10.7768,-10.7547,-10.7554,-10.7557,-10.7971,-10.798,-10.7988,0,0,0,0,0,0,-10.7573,-10.7588,-10.7691,-10.7631,-10.764,-10.7584,-10.7626,-10.7612,-10.763,-10.7584,-10.7572,-10.7576,-10.7546,-10.7554,-10.7666,-10.7766,-10.7557,-10.7562,-10.7963,-10.7974,-10.7984,-10.8182,0,0,0,0,0,0,-10.7569,-10.7588,-10.7656,-10.7633,-10.7644,-10.7796,-10.7632,-10.7617,-10.7643,-10.7624,-10.7609,-10.76,-10.7541,-10.7658,-10.7673,-10.7771,-10.7568,-10.7953,-10.7968,-10.7981,-10.8167,-10.8199,-10.8227,0,0,0,0,0,-10.7564,-10.771,-10.766,-10.7675,-10.7728,-10.7802,-10.7808,-10.7739,-10.7652,-10.7718,-10.7689,-10.76,-10.7755,-10.7671,-10.7686,-10.7788,-10.7946,-10.7964,-10.798,-10.8153,-10.8193,-10.8226,0,0,0,0,0,0,-10.7743,-10.7706,-10.7649,-10.7793,-10.7802,-10.7772,-10.7854,-10.7783,-10.7816,-10.7797,-10.771,-10.7708,-10.7834,-10.7823,-10.773,-10.796,-10.7835,-10.7855,-10.7961,-10.7998,-10.8028,-10.8025,-10.7573,0,0,0,0,0,-10.78,-10.7865,-10.7828,-10.7958,-10.7966,-10.7911,-10.794,-10.7887,-10.7892,-10.7894,-10.7872,-10.788,-10.793,-10.7964,-10.8008,-10.8166,-10.8159,-10.8245,-10.8275,-10.83,-10.8317,-10.8398,-10.8435,-10.8043,-10.8043,-10.8043,0,0,-10.7917,-10.7904,-10.795,-10.7994,-10.7995,-10.8062,-10.7914,-10.7992,-10.804,-10.7905,-10.8009,-10.7995,-10.7998,-10.8134,-10.8192,-10.8128,-10.8424,-10.8321,-10.8341,-10.8344,-10.8419,-10.8456,-10.8489,-10.8054,-10.8052,-10.805,0,0,-10.8162,-10.8162,-10.8269,-10.8274,-10.8278,-10.824,-10.8267,-10.8249,-10.8234,-10.8338,-10.8238,-10.8295,-10.8384,-10.8389,-10.8404,-10.8657,-10.8576,-10.8674,-10.8828,-10.8909,-10.8939,-10.8966,-10.9053,-10.9086,-10.8692,-10.8693,-10.8693,0,-10.8306,-10.8404,-10.8333,-10.8417,-10.8439,-10.8324,-10.8431,-10.8439,-10.8457,-10.8474,-10.8403,-10.8512,-10.8506,-10.8641,-10.8703,-10.872,-10.8746,-10.8672,-10.8941,-10.8967,-10.8991,-10.9073,-10.9107,-10.8704,-10.8703,-10.8702,-10.8701,0,-10.8579,-10.8649,-10.8736,-10.8757,-10.879,-10.8886,-10.8828,-10.8869,-10.8815,-10.8785,-10.8892,-10.8882,-10.8921,-10.895,-10.8898,-10.9078,-10.9038,-10.8957,-10.8828,-10.9041,-10.9116,-10.9148,-10.8721,-10.8717,-10.8713,-10.8711,0,0,-10.8931,-10.8916,-10.8948,-10.8957,-10.8955,-10.9007,-10.9099,-10.9138,-10.9174,-10.9192,-10.9264,-10.9344,-10.9269,-10.9286,-10.9233,-10.9305,-10.9502,-10.9213,-10.9212,-10.9264,-10.9698,-10.9756,-10.9794,-10.9452,-10.9457,-10.9462,-10.9696,0,-10.9167,-10.9321,-10.9262,-10.942,-10.9483,-10.9377,-10.9456,-10.9464,-10.944,-10.9489,-10.9462,-10.9518,-10.9416,-10.9425,-10.9492,-10.9464,-10.9588,-10.9447,-10.9515,-10.9518,-10.9512,-10.9833,-10.9895,-11.0116,-10.9726,-10.9731,-10.9734,0,-10.946,-10.9492,-10.9658,-10.9645,-10.9669,-10.9742,-10.9774,-10.9824,-10.983,-10.9807,-10.9829,-10.9761,-10.9849,-10.9726,-10.9844,-10.975,-10.9776,-10.9767,-10.9774,-10.9773,-10.9635,-10.9837,-11.0185,-11.0217,-10.9781,-10.9777,-10.9774,0,-10.9696,-10.9781,-10.989,-10.9901,-10.9891,-10.9944,-10.9942,-10.9942,-10.997,-10.9999,-11.0016,-11.0055,-11.0075,-11.0106,-11.0051,-10.9967,-11.0176,-11.0049,-11.0157,-11.0159,-11.0201,-11.0198,-11.0553,-11.0227,-11.0226,-11.0226,-11.0225,0,-10.9962,-11.0066,-10.9996,-11.0062,-11.0176,-11.0108,-11.0223,-11.0209,-11.0211,-11.0272,-11.0185,-11.0244,-11.017,-11.0222,-11.018,-11.0283,-11.0294,-11.0276,-11.0263,-11.0281,-11.0283,-11.0292,-11.0273,-11.0234,-11.0232,-11.0231,-11.0229,0,-11.0241,-11.0199,-11.031,-11.0294,-11.0292,-11.0376,-11.036,-11.0421,-11.0393,-11.0472,-11.0487,-11.0443,-11.05,-11.045,-11.0505,-11.0476,-11.0612,-11.0579,-11.061,-11.0599,-11.0708,-11.0697,-11.1078,-11.1123,-11.0772,-11.0776,-11.0778,0,-11.041,-11.0488,-11.0481,-11.0517,-11.0521,-11.058,-11.0609,-11.0546,-11.058,-11.0595,-11.0654,-11.0704,-11.074,-11.0837,-11.0809,-11.085,-11.0815,-11.0946,-11.082,-11.0836,-11.0811,-11.0805,-11.0811,-11.0969,-11.0973,-11.0977,-11.0979,0,-11.0715,-11.0691,-11.0736,-11.0777,-11.0815,-11.0842,-11.0863,-11.0897,-11.0833,-11.0876,-11.0934,-11.0963,-11.1021,-11.1071,-11.1104,-11.11,-11.1029,-11.1021,-11.1047,-11.1063,-11.1076,-11.1067,-11.0674,-11.101,-11.1007,-11.1005,-11.1003,-11.1002,-11.094,-11.1005,-11.101,-11.1064,-11.1075,-11.1097,-11.1153,-11.1134,-11.1182,-11.1224,-11.1185,-11.1255,-11.1261,-11.1298,-11.1304,-11.1358,-11.1302,-11.1342,-11.1351,-11.136,-11.1374,-11.1073,-11.1364,-11.1363,-11.1362,-11.1362,-11.1361,0,-11.1236,-11.1236,-11.1287,-11.132,-11.1363,-11.1297,-11.1317,-11.1357,-11.142,-11.1433,-11.1472,-11.1539,-11.1588,-11.1566,-11.1609,-11.1656,-11.1624,-11.1669,-11.1662,-11.1662,-11.1423,-11.1394,-11.1694,-11.1694,-11.1694,-11.1694,-11.1694,-11.1694,-11.1394,-11.1499,-11.1477,-11.1586,-11.1584,-11.1653,-11.167,-11.169,-11.17,-11.1779,-11.1821,-11.1807,-11.1805,-11.1848,-11.189,-11.1882,-11.19,-11.1956,-11.1936,-11.1712,-11.1679,-11.1647,-11.1619,-11.1962,-11.1962,-11.217,-11.2172,-11.2173]},{"header":{"parameterUnit":"m.s-1","parameterCategory":1,"la1":30.2991,"la2":30.254,"lo1":-89.0895,"lo2":-89.0444,"dy":0.0017,"dx":0.0017,"nx":28,"ny":28,"refTime":"2024-06-18T09:00:00:Z","depth":0,"parameterNumber":3,"parameterNumberName":"V-component_of_WINDS"},"data":[0,0,0,0,0,0,0,0,0,0,0,0,0,0,0,0,0,0,0,0,0,0,0,0,0,0,0,0,0,0,0,0,0,0,0,0,0,0,0,0,0,0,0,0,0,0,0,0,0,0,0,0,0,0,0,0,0,0,2.0887,2.0888,0,2.0935,2.0936,2.0937,2.0986,2.0987,2.0987,2.0988,2.1033,2.1033,2.1034,0,0,0,0,0,0,0,0,0,0,0,0,0,2.0836,2.0837,2.0887,2.0888,2.0889,2.0935,2.0936,2.0937,2.0986,2.0987,2.0987,2.0988,2.1033,2.1033,2.1034,0,0,0,0,0,0,0,0,0,0,0,0,0,2.0868,2.0837,2.0887,2.0919,2.0922,2.0935,2.0936,2.0937,2.0986,2.0987,2.0988,2.0989,2.1033,2.1033,2.1034,2.1019,0,0,2.1037,2.1037,0,0,0,0,0,0,0,0,2.0867,2.087,2.0914,2.0917,2.092,2.0956,2.0935,2.0964,2.0985,2.0961,2.0988,2.0989,2.1006,2.1009,2.1016,2.1021,2.1023,2.1037,2.1037,2.1038,2.1038,0,0,0,0,0,0,0,2.0864,2.0868,2.0906,2.0914,2.0918,2.093,2.0936,2.094,2.0977,2.0963,2.0967,2.0972,2.1008,2.1015,2.1017,2.1023,2.1037,2.1038,2.1038,2.1038,2.102,2.1019,0,0,0,0,0,0,2.0858,2.0866,2.0905,2.0908,2.0896,2.093,2.0936,2.0943,2.0977,2.0984,2.0972,2.0975,2.1013,2.1016,2.1019,2.1004,2.1038,2.1038,2.1039,2.1021,2.102,2.1019,0,0,0,0,0,0,2.0856,2.0861,2.0903,2.0888,2.0894,2.093,2.0937,2.0944,2.0951,2.0984,2.099,2.0972,2.1014,2.1018,2.1019,2.1006,2.1039,2.104,2.1022,2.1021,2.1019,2.0974,0,0,0,0,0,0,2.0855,2.086,2.0855,2.0888,2.0895,2.0903,2.0936,2.0944,2.0952,2.0957,2.0985,2.0991,2.1015,2.1018,2.102,2.1008,2.104,2.1023,2.1022,2.102,2.0976,2.0971,2.0966,0,0,0,0,0,2.0853,2.0839,2.0854,2.0858,2.0889,2.0902,2.0906,2.0935,2.0951,2.0946,2.0968,2.099,2.1008,2.1017,2.102,2.1009,2.1024,2.1022,2.102,2.0979,2.0972,2.0966,0,0,0,0,0,0,2.0801,2.0843,2.0861,2.0857,2.0876,2.091,2.0904,2.0926,2.0939,2.0943,2.0977,2.0983,2.0981,2.0995,2.1005,2.0996,2.1019,2.1018,2.0987,2.0981,2.0976,2.0972,2.1041,0,0,0,0,0,2.079,2.0797,2.0833,2.0826,2.0835,2.0868,2.0875,2.0896,2.0916,2.0923,2.0945,2.0962,2.0972,2.0977,2.0988,2.0979,2.0986,2.0973,2.0968,2.0963,2.0961,2.0959,2.0953,2.1011,2.1011,2.1011,0,0,2.0765,2.0789,2.0791,2.0817,2.0834,2.084,2.0874,2.0879,2.0884,2.0923,2.0927,2.0943,2.0965,2.0962,2.0961,2.0973,2.0947,2.096,2.0956,2.0957,2.0956,2.095,2.0945,2.101,2.101,2.101,0,0,2.0724,2.0743,2.074,2.0757,2.0783,2.0806,2.0805,2.0837,2.085,2.0854,2.0884,2.089,2.0906,2.0921,2.093,2.0898,2.0919,2.09,2.0872,2.087,2.0865,2.0861,2.085,2.0845,2.0898,2.0898,2.0898,0,2.069,2.0702,2.0736,2.074,2.075,2.0789,2.0786,2.08,2.0827,2.0833,2.0847,2.0869,2.0886,2.0888,2.088,2.0887,2.0887,2.0896,2.0863,2.086,2.0856,2.0846,2.0842,2.0895,2.0896,2.0896,2.0896,0,2.0659,2.0667,2.0662,2.069,2.07,2.07,2.0733,2.0739,2.076,2.0781,2.0785,2.0808,2.0825,2.0827,2.0846,2.0831,2.0838,2.0857,2.0881,2.0848,2.0839,2.0835,2.0892,2.0893,2.0893,2.0894,0,0,2.0585,2.0633,2.0631,2.0645,2.0677,2.0684,2.0686,2.0704,2.0709,2.0727,2.073,2.0744,2.0762,2.0773,2.0795,2.0793,2.0766,2.0812,2.0813,2.0803,2.0752,2.0737,2.0732,2.0781,2.0781,2.078,2.075,0,2.0549,2.0558,2.0589,2.0588,2.0596,2.0634,2.0636,2.0656,2.0676,2.0686,2.0708,2.0717,2.0741,2.0748,2.0747,2.0769,2.0756,2.0772,2.0784,2.0784,2.0777,2.0727,2.0711,2.0682,2.0747,2.0746,2.0746,0,2.0508,2.0526,2.0526,2.0561,2.0565,2.0567,2.0587,2.0596,2.062,2.0635,2.0648,2.0673,2.0678,2.0701,2.0708,2.0718,2.0725,2.0736,2.0736,2.0738,2.0762,2.0727,2.0673,2.0668,2.074,2.0741,2.0741,0,2.0455,2.0479,2.0482,2.0493,2.0533,2.0534,2.055,2.0575,2.0584,2.0602,2.0608,2.0625,2.0634,2.0646,2.0675,2.0689,2.0679,2.0704,2.0691,2.069,2.0686,2.0686,2.0632,2.0691,2.0691,2.0691,2.0691,0,2.0411,2.041,2.0459,2.0461,2.0461,2.0498,2.0496,2.0516,2.0538,2.0545,2.0578,2.0583,2.0621,2.063,2.0653,2.0656,2.0659,2.0671,2.0677,2.0668,2.0666,2.0672,2.0675,2.069,2.069,2.0691,2.0691,0,2.0351,2.0384,2.039,2.0429,2.0438,2.0436,2.0469,2.0472,2.0496,2.0503,2.0507,2.0543,2.0556,2.0587,2.0607,2.0622,2.0619,2.063,2.0611,2.0615,2.06,2.0601,2.0548,2.0543,2.0605,2.0604,2.0604,0,2.0321,2.0321,2.036,2.0368,2.0384,2.0395,2.0406,2.0442,2.0452,2.048,2.048,2.0496,2.0511,2.053,2.0557,2.0573,2.0584,2.0565,2.0587,2.0578,2.0584,2.0584,2.0584,2.0559,2.0558,2.0558,2.0557,0,2.0264,2.0281,2.0296,2.0317,2.033,2.0348,2.0367,2.0371,2.0412,2.0421,2.0436,2.0447,2.047,2.0485,2.0506,2.0522,2.0546,2.055,2.0548,2.0539,2.0528,2.0534,2.0598,2.0551,2.0552,2.0552,2.0552,2.0553,2.0218,2.0221,2.025,2.0266,2.0285,2.0303,2.0309,2.0334,2.0347,2.0369,2.039,2.0403,2.0428,2.0459,2.0473,2.0483,2.0496,2.0492,2.0491,2.049,2.0486,2.0527,2.0487,2.0487,2.0488,2.0488,2.0488,0,2.0164,2.0185,2.02,2.0227,2.024,2.0264,2.0288,2.0296,2.0308,2.033,2.0345,2.0362,2.0378,2.0407,2.0425,2.0428,2.0439,2.0431,2.0431,2.0434,2.0474,2.0474,2.0421,2.0421,2.0421,2.0421,2.0422,2.0422,2.0137,2.0144,2.0164,2.018,2.0201,2.0216,2.0227,2.0244,2.0262,2.0281,2.0295,2.0315,2.034,2.0361,2.0376,2.0384,2.0389,2.0377,2.0389,2.0425,2.0431,2.0437,2.0438,2.0378,2.0378,2.0349,2.0348,2.0348]}]]